Location: Alvis C Story Elementary School
(33.0968°N, 96.6364°W)
Time: 06:40:05
(UTC+00:00)

Cosmos 2228 Rocket - Pass Details

Date: 02 July 2022
Orbit: 618 x 651 km, 82.5° (Epoch: 12 August)

Event Time Altitude Azimuth Distance (km) Brightness Sun altitude
Rises 10:07:00 0° 357° (N) 2,913 7.1 -13.8°
Reaches altitude 10° 10:09:15 10° 360° (N) 2,007 6.2 -13.4°
Maximum altitude 10:13:41 67° 82° (E) 686 3.5 -12.7°
Drops below altitude 10° 10:18:07 10° 166° (SSE) 2,014 5.5 -12.0°
Sets 10:20:22 0° 169° (S) 2,924 6.3 -11.6°
